DELTA 1 DEB, 40752

Orbit data source: Space-Track

DELTA 1 DEB, 40752 is space debris in LEO originally from a launch on Thu, 29 Jul 1976 UTC launched from the Air Force Western Test Range (AFWTR). Debris objects in space refer to the collection of defunct objects orbiting the Earth. Examples of debris include non-operational satellites, rocket bodies, and fragments generated from explosions, collisions, or faulty payload assembly.

Loading next visibility...
Identifier
40752, 1976-077FV
Orbit
LEO
Country
Flag of USUS
Related business
Manufacturer
Unknown
Mission
Spacecraft
Bus & Motor
Unknown
Mass
Unknown
Launch date (UTC)
1976-07-29 (50 years ago)
Launch vehicle
Unknown
Launch site
Air Force Western Test Range (AFWTR)
Object type
Payload
Rocket body
Debris
Shape & HBR
Unknown shape, 0.1 m
Radar Cross Section
Small (<0.1 m²)

Expand to show TLE details & history
Last TLE update: 3 days ago

TLE from 3 days ago
0 DELTA 1 DEB
1 40752U 76077FV  26103.72825067  .00000080  00000-0  20831-2 0  9998
2 40752 102.2270 188.6533 0565633 220.1734 299.8455 11.37651831514665
Epoch: 2026-04-13T17:28Z
TLE epoch observation values (Epoch: 2026-04-13T17:28:40.857Z)
Latitude
25.19996°
Longitude
-89.60694°
Altitude
1,761.143 km
Speed
7.09 km/s
True Right ascension
00h 57m 54s
True Declination
25° 05' 03"
Sunlit
Object was in daylight at epoch
Visualization orbit readout
Latitude
Unknown
Longitude
Unknown
Altitude
Unknown
Speed
Unknown
Apparent Right ascension
Unknown
Apparent Declination
Unknown
Sunlit
N/A
Visualization observer readout
Local Sidereal Time
18:01:44
Azimuth
Unknown
Elevation
Unknown
Doppler factor
Unknown
Orbital elements
Apogee altitude
2,442.612 km
Perigee altitude
1,498.171 km
Semi-major axis
8,348.529 km
Eccentricity
0.05656
Inclination
102.227°
RAAN
188.6533°
Arg. of periapsis
220.1734°
True anomaly
294.02881°
Mean anomaly
299.8455°
Eccentric anomaly
296.95678°
Mean motion
2.8453 °/min
Orbital period
126.52 mins
BSTAR
0.0020831
Loading maneuver chart data...
Computing Atmospheric mass density...
Loading historical data...
Loading historical data...
Loading historical data...
Loading historical data...
Loading historical data...
Loading historical data...
Loading historical data...

Documentation

Showing up to 5 results
|